Back to catalog

FENGYUN 1C DEB

LostSSO
NORAD 32138·DEBRIS·🇨🇳 China

Launched May 10, 1999 from Taiyuan Satellite Launch Center

Loading…

Next Passes (next 24 hours)

TLE

StaleSource: Space-Track

Epoch: Apr 9, 2024, 14:08 UTC

1 32138U 99025CSG 24100.58944878  .00006105  00000-0  23355-2 0  9994
2 32138  98.9150 233.2262 0019034 295.7395  64.1822 14.30919678870004

Track FENGYUN 1C DEB in real time with AllMySat

Download on the App Store